EA2MKR Weather Reports


Display with metric or nautical units.
time (UTC)temp
F
wind
direction
speed
MPH
gust
MPH
rain 1hr
in
rain 24hr
in
rain mn
in
humidity
%
barometer
mb
20260507075041 46 276 0.0 0.0 0.00 0.01 0.01 97 950.1
20260507075003 46 282 0.0 0.0 0.00 0.01 0.01 97 950.1
20260507074540 46 283 0.0 1.0 0.00 0.01 0.01 97 950.1
20260507074502 46 283 0.0 1.0 0.00 0.01 0.01 97 950.1
20260507074040 45 283 0.0 2.0 0.00 0.01 0.01 97 950.1
20260507074002 45 283 0.0 2.0 0.00 0.01 0.01 97 950.2
20260507073540 44 282 0.0 2.0 0.00 0.01 0.01 96 950.2
20260507073502 44 282 0.0 2.0 0.00 0.01 0.01 96 950.2
20260507073040 44 259 2.0 2.0 0.00 0.01 0.01 96 950.3
20260507073002 43 259 2.0 2.0 0.00 0.01 0.01 96 950.3
20260507072711 43 259 0.0 2.0 0.00 0.01 0.01 96 950.3
20260507072040 43 259 1.0 2.0 0.00 0.01 0.01 96 950.2
20260507072002 43 259 1.0 2.0 0.00 0.01 0.01 96 950.2
20260507071540 42 259 0.0 2.0 0.00 0.01 0.01 96 950.1
20260507071501 42 259 0.0 2.0 0.00 0.01 0.01 96 950.1
20260507071211 42 259 1.0 2.0 0.00 0.01 0.01 96 950.2
20260507070540 42 171 0.0 0.0 0.00 0.01 0.01 96 950.1
20260507070502 42 171 0.0 0.0 0.00 0.01 0.01 96 950.1
20260507070039 42 171 0.0 0.0 0.00 0.01 0.01 96 950.1
20260507070003 42 171 0.0 0.0 0.00 0.01 0.01 97 950.1
20260507065539 42 171 0.0 0.0 0.00 0.01 0.01 97 950.1
20260507065503 42 171 0.0 0.0 0.00 0.01 0.01 97 950.1
20260507065039 42 168 0.0 1.0 0.00 0.01 0.01 97 950.2
20260507065003 41 168 0.0 1.0 0.00 0.01 0.01 97 950.1
20260507064539 41 168 0.0 1.0 0.00 0.01 0.01 97 950.1
20260507064501 41 168 0.0 1.0 0.00 0.01 0.01 97 950.1
20260507064039 41 168 0.0 1.0 0.00 0.01 0.01 97 950.1
20260507064003 41 168 0.0 1.0 0.00 0.01 0.01 97 950.1
20260507063539 40 168 0.0 1.0 0.00 0.01 0.01 97 950.2
20260507063502 40 168 0.0 1.0 0.00 0.01 0.01 97 950.2
20260507063039 39 168 0.0 0.0 0.00 0.01 0.01 97 950.1
20260507063002 39 168 0.0 0.0 0.00 0.01 0.01 97 950.1
20260507062538 39 168 0.0 0.0 0.00 0.01 0.01 97 950.1
20260507062502 39 168 0.0 0.0 0.00 0.01 0.01 97 950.1
20260507062039 39 166 0.0 0.0 0.00 0.01 0.01 97 950.1
20260507062003 39 166 0.0 0.0 0.00 0.01 0.01 97 950.1
20260507061538 39 166 0.0 0.0 0.00 0.01 0.01 97 950.3
20260507061504 39 166 0.0 0.0 0.00 0.01 0.01 97 950.1
20260507061038 39 166 0.0 0.0 0.00 0.01 0.01 97 950.2
20260507061002 39 166 0.0 0.0 0.00 0.01 0.01 97 950.2
20260507060538 38 166 0.0 0.0 0.00 0.01 0.01 97 950.2
20260507060503 38 166 0.0 0.0 0.00 0.01 0.01 97 950.3
20260507060038 38 169 0.0 0.0 0.00 0.01 0.01 97 950.3
20260507060002 38 169 0.0 0.0 0.00 0.01 0.01 97 950.3
20260507055538 38 169 0.0 0.0 0.00 0.01 0.01 97 950.1
20260507055503 38 169 0.0 0.0 0.00 0.01 0.01 97 950.2
20260507055038 38 169 0.0 0.0 0.00 0.01 0.01 97 950.2
20260507055002 38 169 0.0 0.0 0.00 0.01 0.01 97 950.2
20260507054538 38 169 0.0 0.0 0.00 0.01 0.01 97 950.1
20260507054503 38 169 0.0 0.0 0.00 0.01 0.01 97 950.1
20260507054038 38 169 0.0 0.0 0.00 0.01 0.01 97 950.1
20260507054003 38 169 0.0 0.0 0.00 0.01 0.01 97 950.2
20260507053711 37 169 0.0 0.0 0.00 0.01 0.01 97 950.1
20260507053038 37 169 0.0 0.0 0.00 0.01 0.01 97 950.1
20260507053003 37 169 0.0 0.0 0.00 0.01 0.01 97 950.1
20260507052538 37 169 0.0 0.0 0.00 0.01 0.01 97 950.2
20260507052503 37 169 0.0 0.0 0.00 0.01 0.01 97 950.1
20260507052038 37 169 0.0 0.0 0.00 0.01 0.01 97 950.0
20260507052003 37 169 0.0 0.0 0.00 0.01 0.01 97 950.0
20260507051537 37 169 0.0 0.0 0.01 0.01 0.01 97 950.0
20260507051503 37 169 0.0 0.0 0.01 0.01 0.01 97 950.0
20260507051037 37 169 0.0 0.0 0.01 0.01 0.01 97 949.9
20260507051002 37 169 0.0 0.0 0.01 0.01 0.01 97 950.0
20260507050537 37 169 0.0 0.0 0.01 0.01 0.01 97 950.0
20260507050503 37 169 0.0 0.0 0.01 0.01 0.01 97 950.1
20260507050037 37 169 0.0 0.0 0.01 0.01 0.01 97 950.0
20260507050002 37 169 0.0 0.0 0.01 0.00 0.01 97 950.0
20260507045537 37 169 0.0 0.0 0.01 0.00 0.01 96 949.9
20260507045502 37 169 0.0 0.0 0.01 0.00 0.01 96 949.9
20260507045036 37 169 0.0 0.0 0.01 0.00 0.01 96 949.9
20260507045002 37 169 0.0 0.0 0.01 0.00 0.01 96 950.0
20260507044711 37 169 0.0 0.0 0.01 0.00 0.01 96 950.0
20260507044034 37 169 0.0 0.0 0.01 0.00 0.01 96 950.0
20260507044002 37 169 0.0 0.0 0.01 0.00 0.01 96 950.0
20260507043502 38 169 0.0 0.0 0.01 0.00 0.01 97 949.9
20260507043003 37 169 0.0 0.0 0.01 0.00 0.01 96 950.0
20260507042711 37 169 0.0 0.0 0.01 0.00 0.01 96 950.0
20260507042003 37 169 0.0 1.0 0.01 0.00 0.01 96 950.0
20260507041530 37 169 0.0 1.0 0.00 0.00 0.00 96 950.0
20260507041502 37 169 0.0 0.0 0.00 0.00 0.00 96 950.0
20260507041002 37 169 0.0 1.0 0.00 0.00 0.00 96 949.9
20260507040502 38 169 0.0 1.0 0.00 0.00 0.00 96 950.0
20260507040002 38 166 0.0 1.0 0.00 0.00 0.00 96 949.9
20260507035502 38 165 0.0 0.0 0.00 0.00 0.00 96 949.9
20260507035212 38 165 0.0 0.0 0.00 0.00 0.00 96 950.1
20260507034502 38 165 0.0 0.0 0.00 0.00 0.00 96 950.0
20260507034031 37 165 0.0 0.0 0.00 0.00 0.00 96 950.0
20260507034002 38 165 0.0 0.0 0.00 0.00 0.00 96 950.0
20260507033503 38 165 0.0 0.0 0.00 0.00 0.00 96 950.0
20260507033003 38 165 0.0 0.0 0.00 0.00 0.00 95 949.9
20260507032502 38 165 0.0 0.0 0.00 0.00 0.00 95 950.0
20260507032031 38 165 0.0 0.0 0.00 0.00 0.00 95 950.0
20260507032003 39 165 0.0 0.0 0.00 0.00 0.00 95 950.0
20260507031503 39 165 0.0 0.0 0.00 0.00 0.00 96 950.0
20260507031003 39 165 0.0 1.0 0.00 0.00 0.00 96 949.9
20260507030502 40 165 0.0 1.0 0.00 0.00 0.00 96 949.9
20260507030003 39 165 0.0 0.0 0.00 0.00 0.00 96 949.9
20260507025502 40 165 0.0 1.0 0.00 0.00 0.00 96 949.9
20260507025002 39 165 0.0 1.0 0.00 0.00 0.00 96 949.9
20260507024502 39 243 0.0 1.0 0.00 0.00 0.00 95 950.0
20260507024210 40 243 0.0 2.0 0.00 0.00 0.00 95 950.0
20260507023503 40 243 0.0 2.0 0.00 0.00 0.00 95 950.0
20260507023002 40 200 0.0 1.0 0.00 0.00 0.00 96 949.9
20260507022502 40 200 0.0 0.0 0.00 0.00 0.00 96 949.8
20260507022002 40 200 0.0 0.0 0.00 0.00 0.00 95 949.7
20260507021503 40 200 0.0 0.0 0.00 0.00 0.00 95 949.8
20260507021002 40 200 0.0 1.0 0.00 0.00 0.00 95 949.9
20260507020502 40 200 0.0 1.0 0.00 0.00 0.00 95 950.0
20260507020003 40 200 0.0 1.0 0.00 0.00 0.00 95 950.0
20260507015502 40 200 0.0 1.0 0.00 0.00 0.00 95 950.0
20260507015002 40 200 0.0 1.0 0.00 0.00 0.00 94 950.0
20260507014503 40 200 0.0 1.0 0.00 0.00 0.00 93 950.0
20260507014212 42 149 0.0 1.0 0.00 0.00 0.00 96 950.1
20260507013502 41 157 0.0 0.0 0.00 0.00 0.00 94 950.0
20260507013002 41 158 0.0 1.0 0.00 0.00 0.00 94 950.1
20260507012502 41 152 0.0 1.0 0.00 0.00 0.00 94 950.1
20260507012003 41 152 0.0 1.0 0.00 0.00 0.00 93 950.0
20260507011503 42 152 0.0 1.0 0.00 0.00 0.00 94 950.1
20260507011003 43 152 0.0 0.0 0.00 0.00 0.00 95 950.1
20260507010502 42 152 0.0 0.0 0.00 0.00 0.00 95 950.2
20260507010003 42 152 0.0 0.0 0.00 0.00 0.00 94 950.2
20260507005502 42 152 0.0 1.0 0.00 0.00 0.00 94 950.3
20260507005002 42 152 0.0 1.0 0.00 0.00 0.00 94 950.3
20260507004502 42 152 0.0 0.0 0.00 0.00 0.00 94 950.4
20260507004002 43 152 0.0 0.0 0.00 0.00 0.00 94 950.4
20260507003500 43 152 0.0 0.0 0.00 0.00 0.00 95 950.4
20260507002957 43 151 0.0 0.0 0.00 0.00 0.00 95 950.4
20260507002431 43 151 0.0 0.0 0.00 0.00 0.00 94 950.5
20260507002141 43 152 0.0 0.0 0.00 0.00 0.00 95 950.5
20260507001431 43 152 0.0 0.0 0.00 0.00 0.00 94 950.7
20260507000931 43 151 0.0 0.0 0.00 0.00 0.00 94 950.6
20260507000431 43 151 0.0 0.0 0.00 0.00 0.00 94 950.6
20260506235930 43 151 0.0 0.0 0.00 0.00 0.00 94 950.6
20260506235430 43 151 0.0 0.0 0.00 0.00 0.00 94 950.7
20260506234930 43 212 0.0 0.0 0.00 0.00 0.00 94 950.6
20260506234431 43 212 0.0 1.0 0.00 0.00 0.00 94 950.7
20260506233930 43 212 0.0 1.0 0.00 0.00 0.00 93 950.7
20260506233430 43 237 0.0 2.0 0.00 0.00 0.00 93 950.6
20260506232930 43 237 0.0 2.0 0.00 0.00 0.00 93 950.7
20260506232638 43 178 0.0 1.0 0.00 0.00 0.00 93 950.7
20260506231930 43 142 0.0 0.0 0.00 0.00 0.00 92 950.6
20260506231429 43 142 0.0 1.0 0.00 0.00 0.00 92 950.7
20260506230929 44 141 0.0 1.0 0.00 0.00 0.00 91 950.7
20260506230430 44 154 0.0 0.0 0.00 0.00 0.00 92 950.6
20260506225929 44 155 0.0 1.0 0.00 0.00 0.00 91 950.7
20260506225430 44 155 0.0 1.0 0.00 0.00 0.00 92 950.9
20260506224929 45 155 0.0 1.0 0.00 0.00 0.00 91 951.0
20260506224637 45 155 0.0 1.0 0.00 0.00 0.00 92 951.0
20260506223929 45 155 0.0 1.0 0.00 0.00 0.00 92 951.0
20260506223429 44 155 0.0 0.0 0.00 0.00 0.00 90 951.0
20260506223138 45 157 0.0 0.0 0.00 0.00 0.00 90 950.9
20260506222428 45 155 0.0 1.0 0.00 0.00 0.00 89 951.0
20260506221928 46 155 1.0 3.0 0.00 0.00 0.00 87 951.0
20260506221637 46 158 2.0 3.0 0.00 0.00 0.00 90 951.0
20260506220928 46 128 0.0 2.0 0.00 0.00 0.00 90 951.0
20260506220429 46 128 0.0 2.0 0.00 0.00 0.00 88 951.0
20260506215928 47 131 0.0 2.0 0.00 0.00 0.00 87 951.1
20260506215637 47 134 0.0 4.0 0.00 0.00 0.00 88 951.1
20260506215136 47 125 1.0 4.0 0.00 0.00 0.00 88 951.0
20260506214427 47 180 0.0 3.0 0.00 0.00 0.00 87 951.1
20260506213927 48 117 1.0 2.0 0.00 0.00 0.00 87 951.0
20260506213427 48 141 1.0 4.0 0.00 0.00 0.00 88 950.9
20260506212928 47 128 1.0 4.0 0.00 0.00 0.00 88 950.9
20260506212635 47 137 0.0 2.0 0.00 0.00 0.00 88 950.9
20260506211927 47 144 0.0 1.0 0.00 0.00 0.00 88 951.0
20260506211428 47 144 0.0 1.0 0.00 0.00 0.00 88 951.0
20260506210926 48 125 0.0 4.0 0.00 0.00 0.00 87 951.0
20260506210427 48 124 1.0 4.0 0.00 0.00 0.00 87 951.0
20260506210136 48 134 2.0 4.0 0.00 0.00 0.00 88 951.1
20260506205635 47 135 1.0 3.0 0.00 0.00 0.00 88 951.1
20260506204927 47 125 2.0 3.0 0.00 0.00 0.00 87 951.0
20260506204427 47 128 2.0 3.0 0.00 0.00 0.00 86 951.0
20260506203926 48 140 0.0 2.0 0.00 0.00 0.00 85 951.0
20260506203426 48 138 1.0 2.0 0.00 0.00 0.00 84 950.9
20260506202927 49 138 0.0 2.0 0.00 0.00 0.00 84 950.9
20260506202634 49 111 0.0 4.0 0.00 0.00 0.00 84 950.9
20260506201923 49 124 1.0 4.0 0.00 0.00 0.00 84 950.9
20260506201423 49 121 0.0 2.0 0.00 0.00 0.00 83 950.9
20260506200925 49 120 1.0 2.0 0.00 0.00 0.00 84 950.9
20260506200921 49 120 1.0 2.0 0.00 0.00 0.00 84 950.8
20260506200419 48 118 0.0 1.0 0.00 0.00 0.00 84 950.8
20260506200127 48 118 0.0 1.0 0.00 0.00 0.00 84 950.8
20260506195411 49 118 0.0 4.0 0.00 0.00 0.00 83 950.7
20260506194903 49 118 0.0 4.0 0.00 0.00 0.00 82 950.7
20260506194426 49 100 1.0 3.0 0.00 0.00 0.00 82 950.7
20260506194402 49 99 1.0 3.0 0.00 0.00 0.00 82 950.7
20260506193925 50 97 1.0 3.0 0.00 0.00 0.00 81 950.7
20260506193902 50 102 1.0 3.0 0.00 0.00 0.00 81 950.6
20260506193426 50 133 1.0 4.0 0.00 0.00 0.00 81 950.6
20260506193402 50 133 2.0 4.0 0.00 0.00 0.00 81 950.6
20260506193110 50 138 1.0 4.0 0.00 0.00 0.00 80 950.6
20260506192610 50 127 1.0 6.0 0.00 0.00 0.00 79 950.6
20260506192110 51 116 3.0 6.0 0.00 0.00 0.00 78 950.4
20260506191425 51 111 2.0 7.0 0.00 0.00 0.00 77 950.4
20260506191403 51 97 2.0 7.0 0.00 0.00 0.00 77 950.4
20260506190924 51 102 3.0 7.0 0.00 0.00 0.00 77 950.4
20260506190855 51 110 2.0 7.0 0.00 0.00 0.00 77 950.4
20260506190424 51 134 2.0 7.0 0.00 0.00 0.00 77 950.4
20260506190350 51 137 2.0 7.0 0.00 0.00 0.00 77 950.4
20260506185924 52 103 2.0 7.0 0.00 0.00 0.00 76 950.4
20260506185842 52 123 3.0 7.0 0.00 0.00 0.00 76 950.4
20260506185549 53 121 2.0 5.0 0.00 0.00 0.00 76 950.3
20260506184925 53 127 1.0 9.0 0.00 0.00 0.00 75 950.3
20260506184838 53 127 1.0 9.0 0.00 0.00 0.00 75 950.3
20260506184424 53 109 3.0 9.0 0.00 0.00 0.00 76 950.3
20260506184338 53 100 2.0 6.0 0.00 0.00 0.00 76 950.2
20260506184043 53 137 2.0 5.0 0.00 0.00 0.00 76 950.2
20260506183424 54 118 3.0 5.0 0.00 0.00 0.00 74 950.2
20260506183335 54 162 2.0 5.0 0.00 0.00 0.00 74 950.2
20260506182924 54 134 2.0 4.0 0.00 0.00 0.00 72 950.2
20260506182832 54 130 2.0 4.0 0.00 0.00 0.00 72 950.1
20260506182424 55 121 1.0 4.0 0.00 0.00 0.00 71 950.1
20260506182330 55 123 1.0 4.0 0.00 0.00 0.00 72 950.1
20260506181924 55 106 2.0 5.0 0.00 0.00 0.00 71 950.2
20260506181831 55 106 2.0 5.0 0.00 0.00 0.00 71 950.2
20260506181424 55 127 2.0 7.0 0.00 0.00 0.00 72 950.1
20260506181331 55 109 1.0 7.0 0.00 0.00 0.00 72 950.1
20260506180923 55 113 2.0 7.0 0.00 0.00 0.00 72 950.1
20260506180831 55 104 2.0 7.0 0.00 0.00 0.00 72 950.1
20260506180423 55 114 1.0 5.0 0.00 0.00 0.00 74 950.1
20260506180331 55 125 1.0 5.0 0.00 0.00 0.00 74 950.1
20260506180040 54 114 1.0 7.0 0.00 0.00 0.00 75 950.2
20260506175423 54 161 2.0 7.0 0.00 0.00 0.00 77 950.1
20260506175331 53 140 2.0 7.0 0.00 0.00 0.00 77 950.1
20260506174923 53 134 3.0 9.0 0.00 0.00 0.00 77 950.0
20260506174830 53 202 3.0 9.0 0.00 0.00 0.00 77 950.1
20260506174423 53 106 2.0 9.0 0.00 0.00 0.00 76 950.1
20260506174332 53 113 2.0 9.0 0.00 0.00 0.00 76 950.1
20260506173922 53 121 1.0 6.0 0.00 0.00 0.00 76 950.1
20260506173831 53 127 1.0 6.0 0.00 0.00 0.00 76 950.1
20260506173422 53 131 2.0 6.0 0.00 0.00 0.00 75 950.1
20260506173331 53 213 3.0 6.0 0.00 0.00 0.00 75 950.1
20260506172922 53 121 2.0 6.0 0.00 0.00 0.00 74 950.1
20260506172831 53 127 1.0 6.0 0.00 0.00 0.00 74 950.1
20260506172422 54 144 3.0 6.0 0.00 0.00 0.00 73 950.2
20260506172332 54 86 3.0 6.0 0.00 0.00 0.00 73 950.2
20260506171923 54 133 2.0 9.0 0.00 0.00 0.00 72 950.1
20260506171831 55 99 2.0 9.0 0.00 0.00 0.00 73 950.2
20260506171422 55 133 2.0 11.0 0.00 0.00 0.00 72 950.2
20260506171332 55 87 2.0 11.0 0.00 0.00 0.00 71 950.2
20260506170922 56 92 6.0 11.0 0.00 0.00 0.00 71 950.1
20260506170828 56 89 4.0 12.0 0.00 0.00 0.00 71 950.1
20260506170422 56 86 5.0 13.0 0.00 0.00 0.00 69 950.1
20260506170328 56 100 7.0 13.0 0.00 0.00 0.00 69 950.1
20260506165921 56 104 9.0 13.0 0.00 0.00 0.00 67 950.0
20260506165826 56 100 8.0 13.0 0.00 0.00 0.00 68 950.1
20260506165534 57 114 6.0 13.0 0.00 0.00 0.00 69 950.0
20260506164922 57 92 6.0 11.0 0.00 0.00 0.00 68 950.0
20260506164824 57 110 5.0 11.0 0.00 0.00 0.00 68 950.0
20260506164421 57 114 2.0 11.0 0.00 0.00 0.00 68 949.9
20260506164324 57 118 4.0 11.0 0.00 0.00 0.00 69 949.9
20260506164032 57 97 2.0 11.0 0.00 0.00 0.00 69 949.8
20260506163421 57 141 1.0 11.0 0.00 0.00 0.00 71 949.8
20260506163325 56 214 3.0 11.0 0.00 0.00 0.00 71 949.9
20260506162921 56 86 3.0 10.0 0.00 0.00 0.00 72 949.8
20260506162823 56 76 2.0 9.0 0.00 0.00 0.00 71 949.8
20260506162421 56 200 0.0 6.0 0.00 0.00 0.00 73 949.8
20260506162324 56 117 1.0 7.0 0.00 0.00 0.00 73 949.9
20260506161921 56 107 1.0 7.0 0.00 0.00 0.00 73 949.9
20260506161823 55 147 1.0 7.0 0.00 0.00 0.00 72 949.9
20260506161421 56 125 5.0 7.0 0.00 0.00 0.00 74 949.9
20260506161323 55 86 5.0 7.0 0.00 0.00 0.00 74 949.9
20260506160921 55 133 1.0 10.0 0.00 0.00 0.00 73 950.0
20260506160823 55 158 2.0 10.0 0.00 0.00 0.00 73 950.0
20260506160420 55 94 2.0 14.0 0.00 0.00 0.00 73 950.0
20260506160323 55 121 2.0 14.0 0.00 0.00 0.00 72 950.0
20260506160031 56 111 7.0 14.0 0.00 0.00 0.00 73 949.9
20260506155420 55 107 2.0 13.0 0.00 0.00 0.00 76 950.0
20260506155323 55 76 3.0 13.0 0.00 0.00 0.00 77 950.0
20260506154921 55 102 7.0 13.0 0.00 0.00 0.00 76 950.1
20260506154823 55 116 9.0 13.0 0.00 0.00 0.00 77 950.0
20260506154421 55 140 5.0 12.0 0.00 0.00 0.00 78 950.1
20260506154322 55 135 6.0 12.0 0.00 0.00 0.00 78 950.1
20260506153920 54 110 5.0 10.0 0.00 0.00 0.00 82 950.1
20260506153822 54 149 5.0 10.0 0.00 0.00 0.00 81 950.2
20260506153420 54 79 2.0 6.0 0.00 0.00 0.00 82 950.2
20260506153323 54 123 0.0 6.0 0.00 0.00 0.00 82 950.3
20260506152920 53 116 2.0 6.0 0.00 0.00 0.00 81 950.3
20260506152822 53 116 2.0 6.0 0.00 0.00 0.00 80 950.3
20260506152419 54 128 3.0 6.0 0.00 0.00 0.00 80 950.3
20260506152322 54 137 2.0 5.0 0.00 0.00 0.00 80 950.3
20260506151919 54 152 0.0 5.0 0.00 0.00 0.00 80 950.3
20260506151822 54 149 0.0 6.0 0.00 0.00 0.00 80 950.4
20260506151420 54 110 2.0 14.0 0.00 0.00 0.00 78 950.4
20260506151322 54 138 2.0 14.0 0.00 0.00 0.00 77 950.4
20260506150920 54 99 7.0 14.0 0.00 0.00 0.00 78 950.4
20260506150822 54 102 9.0 17.0 0.00 0.00 0.00 78 950.4
20260506150419 55 90 8.0 17.0 0.00 0.00 0.00 76 950.3
20260506150322 55 99 8.0 17.0 0.00 0.00 0.00 75 950.3
20260506145920 55 104 7.0 17.0 0.00 0.00 0.00 75 950.2
20260506145822 55 92 6.0 14.0 0.00 0.00 0.00 74 950.2
20260506145419 55 97 6.0 14.0 0.00 0.00 0.00 74 950.3
20260506145323 55 102 7.0 15.0 0.00 0.00 0.00 76 950.3
20260506144919 56 102 8.0 15.0 0.00 0.00 0.00 75 950.3
20260506144822 56 99 9.0 15.0 0.00 0.00 0.00 75 950.2
20260506144530 56 125 9.0 18.0 0.00 0.00 0.00 77 950.3
20260506143919 55 80 10.0 18.0 0.00 0.00 0.00 76 950.3
20260506143822 55 106 13.0 18.0 0.00 0.00 0.00 74 950.4
20260506143529 56 93 13.0 17.0 0.00 0.00 0.00 72 950.3
20260506143029 57 94 11.0 17.0 0.00 0.00 0.00 75 950.4
20260506142529 56 71 7.0 12.0 0.00 0.00 0.00 75 950.4
20260506141919 56 134 4.0 13.0 0.00 0.00 0.00 74 950.4
20260506141821 56 110 4.0 13.0 0.00 0.00 0.00 75 950.5
20260506141418 56 94 7.0 13.0 0.00 0.00 0.00 73 950.4
20260506141321 56 109 8.0 13.0 0.00 0.00 0.00 73 950.4
20260506140918 56 116 7.0 13.0 0.00 0.01 0.00 74 950.5
20260506140821 56 86 9.0 13.0 0.00 0.02 0.00 73 950.4
20260506140419 56 90 4.0 12.0 0.00 0.02 0.00 73 950.5
20260506140320 56 117 3.0 12.0 0.00 0.02 0.00 73 950.5
20260506135918 57 107 7.0 12.0 0.00 0.03 0.00 71 950.6
20260506135820 57 102 5.0 12.0 0.00 0.04 0.00 73 950.6
20260506135418 57 85 8.0 12.0 0.00 0.04 0.00 75 950.7
20260506135320 57 97 6.0 11.0 0.00 0.04 0.00 74 950.6
20260506134917 56 117 5.0 11.0 0.00 0.06 0.00 74 950.7
20260506134821 55 106 5.0 11.0 0.00 0.06 0.00 75 950.6
20260506134418 55 100 5.0 11.0 0.00 0.09 0.00 74 950.6
20260506134320 55 142 4.0 11.0 0.00 0.09 0.00 74 950.7
20260506133918 55 127 5.0 11.0 0.00 0.09 0.00 76 950.6
20260506133820 55 96 7.0 11.0 0.00 0.09 0.00 75 950.7
20260506133418 55 106 5.0 10.0 0.00 0.09 0.00 74 950.6
20260506133320 54 110 4.0 10.0 0.00 0.09 0.00 73 950.6
20260506132917 54 147 4.0 10.0 0.00 0.09 0.00 73 950.6
20260506132820 54 124 3.0 10.0 0.00 0.09 0.00 75 950.6
20260506132418 54 110 4.0 11.0 0.00 0.09 0.00 73 950.7
20260506132320 54 85 4.0 11.0 0.00 0.09 0.00 73 950.6
20260506132028 54 94 5.0 12.0 0.00 0.09 0.00 73 950.7
20260506131417 55 137 4.0 12.0 0.00 0.09 0.00 75 950.6
20260506131320 55 97 5.0 12.0 0.00 0.09 0.00 74 950.6
20260506130917 55 96 6.0 11.0 0.00 0.09 0.00 75 950.6
20260506130820 55 123 6.0 11.0 0.00 0.09 0.00 74 950.6
20260506130416 55 107 4.0 7.0 0.00 0.09 0.00 76 950.6
20260506130319 55 110 3.0 7.0 0.00 0.09 0.00 75 950.5
20260506125915 55 117 2.0 10.0 0.00 0.09 0.00 75 950.5
20260506125819 55 106 2.0 10.0 0.00 0.09 0.00 74 950.5
20260506125417 55 147 5.0 10.0 0.00 0.09 0.00 73 950.5
20260506125319 55 106 5.0 10.0 0.00 0.09 0.00 73 950.6
20260506124917 55 107 3.0 7.0 0.00 0.09 0.00 74 950.4
20260506124819 55 106 3.0 7.0 0.00 0.09 0.00 73 950.4
20260506124416 55 121 3.0 6.0 0.00 0.09 0.00 73 950.4
20260506124319 55 124 3.0 6.0 0.00 0.09 0.00 75 950.4
20260506123916 55 111 1.0 7.0 0.00 0.09 0.00 75 950.4
20260506123819 55 145 2.0 7.0 0.00 0.09 0.00 72 950.5
20260506123416 55 140 4.0 7.0 0.00 0.09 0.00 73 950.5
20260506123319 55 125 4.0 7.0 0.00 0.09 0.00 73 950.5
20260506122916 55 131 2.0 7.0 0.00 0.09 0.00 74 950.4
20260506122819 55 138 1.0 7.0 0.00 0.09 0.00 72 950.4
20260506122416 55 109 4.0 7.0 0.00 0.09 0.00 73 950.4
20260506122319 55 138 4.0 7.0 0.00 0.09 0.00 73 950.5
20260506121915 55 94 4.0 6.0 0.00 0.09 0.00 73 950.4
20260506121819 55 86 3.0 6.0 0.00 0.09 0.00 72 950.4
20260506121415 55 116 1.0 7.0 0.00 0.09 0.00 76 950.5
20260506121318 55 97 0.0 7.0 0.00 0.09 0.00 74 950.5
20260506121026 55 123 1.0 7.0 0.00 0.09 0.00 73 950.5
20260506120415 54 117 2.0 6.0 0.00 0.09 0.00 74 950.5
20260506120318 54 124 2.0 6.0 0.00 0.09 0.00 75 950.5
20260506115915 54 107 1.0 6.0 0.00 0.09 0.00 73 950.6
20260506115818 54 104 2.0 6.0 0.00 0.09 0.00 73 950.6
20260506115415 54 125 2.0 7.0 0.00 0.09 0.00 72 950.6
20260506115318 54 152 1.0 7.0 0.00 0.09 0.00 74 950.6
20260506115026 54 116 2.0 11.0 0.00 0.09 0.00 75 950.6
20260506114415 54 123 6.0 11.0 0.00 0.09 0.00 74 950.7
20260506114317 54 114 7.0 11.0 0.00 0.09 0.00 72 950.6
20260506113915 54 124 3.0 7.0 0.00 0.09 0.00 75 950.6
20260506113818 54 100 4.0 7.0 0.00 0.09 0.00 74 950.7
20260506113415 54 140 5.0 9.0 0.00 0.09 0.00 73 950.6
20260506113317 54 134 3.0 9.0 0.00 0.09 0.00 74 950.7
20260506112915 54 89 3.0 9.0 0.00 0.09 0.00 76 950.7
20260506112817 54 114 4.0 9.0 0.00 0.09 0.00 75 950.7
20260506112415 54 124 2.0 5.0 0.00 0.09 0.00 73 950.6
20260506112317 54 99 2.0 6.0 0.00 0.09 0.00 75 950.6
20260506111914 53 113 3.0 6.0 0.00 0.09 0.00 75 950.6
20260506111817 53 154 3.0 6.0 0.00 0.09 0.00 74 950.6
20260506111414 53 114 3.0 7.0 0.00 0.09 0.00 74 950.6
20260506111317 53 135 2.0 7.0 0.00 0.09 0.00 76 950.7
20260506110914 53 104 4.0 7.0 0.00 0.09 0.00 77 950.7
20260506110817 53 102 4.0 7.0 0.00 0.09 0.00 78 950.7
20260506110414 53 113 2.0 5.0 0.00 0.09 0.00 78 950.7
20260506110317 53 107 1.0 5.0 0.00 0.09 0.00 77 950.7
20260506110025 53 89 3.0 6.0 0.00 0.10 0.00 77 950.7
20260506105414 53 82 4.0 7.0 0.00 0.10 0.00 76 950.8
20260506105316 53 99 4.0 7.0 0.00 0.10 0.00 76 950.7
20260506104914 53 100 6.0 7.0 0.00 0.10 0.00 77 950.8
20260506104817 53 80 4.0 7.0 0.00 0.10 0.00 76 950.7
20260506104414 53 102 4.0 9.0 0.00 0.11 0.00 77 950.7
20260506104316 53 103 4.0 9.0 0.00 0.11 0.00 77 950.8
20260506103913 52 87 4.0 10.0 0.00 0.11 0.00 77 950.7
20260506103817 52 94 4.0 10.0 0.00 0.11 0.00 75 950.7
20260506103413 53 102 4.0 10.0 0.00 0.11 0.00 78 950.6
20260506103316 53 106 6.0 10.0 0.00 0.11 0.00 78 950.7
20260506102913 52 90 2.0 6.0 0.00 0.11 0.00 78 950.7
20260506102816 52 127 2.0 6.0 0.00 0.11 0.00 79 950.7
20260506102413 52 134 3.0 6.0 0.00 0.11 0.00 79 950.7
20260506102315 52 131 2.0 6.0 0.00 0.11 0.00 80 950.7
20260506101913 51 131 3.0 4.0 0.00 0.11 0.00 78 950.8
20260506101815 51 125 3.0 4.0 0.00 0.11 0.00 79 950.7
20260506101413 51 137 2.0 5.0 0.00 0.11 0.00 80 950.8
20260506101316 51 138 1.0 5.0 0.00 0.11 0.00 81 950.8
20260506100913 51 140 2.0 9.0 0.00 0.11 0.00 82 950.8
20260506100816 51 109 2.0 9.0 0.00 0.11 0.00 81 950.8
20260506100524 50 104 3.0 9.0 0.00 0.11 0.00 81 950.8
20260506095913 50 133 4.0 10.0 0.00 0.12 0.00 81 950.9
20260506095815 50 107 5.0 10.0 0.00 0.13 0.00 82 950.8
20260506095413 50 111 4.0 11.0 0.00 0.14 0.00 81 950.8
20260506095316 50 100 6.0 11.0 0.00 0.14 0.00 81 950.8
20260506094913 50 96 7.0 11.0 0.00 0.14 0.00 80 950.8
20260506094816 50 99 7.0 11.0 0.00 0.14 0.00 81 950.7
20260506094412 51 144 4.0 7.0 0.00 0.18 0.00 81 950.7
20260506094315 51 99 3.0 7.0 0.00 0.18 0.00 80 950.7
20260506093913 51 117 2.0 10.0 0.00 0.19 0.00 81 950.7
20260506093815 51 134 2.0 10.0 0.00 0.19 0.00 81 950.7
20260506093413 51 111 2.0 10.0 0.00 0.19 0.00 80 950.7
20260506093315 51 131 3.0 10.0 0.00 0.19 0.00 81 950.7
20260506092912 51 109 4.0 7.0 0.00 0.19 0.00 81 950.6
20260506092814 51 97 4.0 7.0 0.00 0.19 0.00 81 950.7
20260506092412 50 100 4.0 5.0 0.00 0.19 0.00 81 950.6
20260506092315 50 103 3.0 5.0 0.00 0.19 0.00 81 950.6
20260506091912 50 107 3.0 5.0 0.00 0.19 0.00 83 950.5
20260506091814 50 92 2.0 4.0 0.00 0.19 0.00 84 950.5
20260506091412 50 93 2.0 4.0 0.00 0.19 0.00 83 950.5
20260506091314 50 93 2.0 4.0 0.00 0.19 0.00 83 950.5
20260506090912 50 97 1.0 4.0 0.00 0.19 0.00 82 950.5
20260506090815 51 97 2.0 4.0 0.00 0.19 0.00 82 950.6
20260506090409 51 90 2.0 3.0 0.00 0.19 0.00 82 950.6
20260506090315 51 83 2.0 3.0 0.00 0.20 0.00 83 950.6
20260506085903 51 120 1.0 3.0 0.00 0.20 0.00 82 950.5
20260506085814 51 120 1.0 3.0 0.00 0.21 0.00 82 950.5
20260506085402 50 90 1.0 3.0 0.00 0.23 0.00 84 950.4
20260506085314 50 85 1.0 3.0 0.00 0.23 0.00 84 950.4
20260506084902 50 109 1.0 2.0 0.00 0.23 0.00 84 950.5
20260506084813 50 121 0.0 1.0 0.00 0.24 0.00 84 950.5
20260506084402 50 330 0.0 1.0 0.00 0.24 0.00 85 950.4
20260506084314 50 330 0.0 1.0 0.00 0.25 0.00 84 950.4
20260506084022 50 330 0.0 1.0 0.00 0.26 0.00 85 950.4
20260506083402 50 330 0.0 2.0 0.00 0.26 0.00 85 950.4
20260506083314 50 330 0.0 2.0 0.00 0.26 0.00 85 950.4
20260506082903 50 330 1.0 2.0 0.00 0.26 0.00 85 950.4
20260506082814 50 330 1.0 2.0 0.00 0.26 0.00 85 950.4
20260506082400 50 248 1.0 6.0 0.00 0.26 0.00 86 950.5
20260506082314 50 248 1.0 6.0 0.00 0.26 0.00 87 950.5
20260506081853 50 323 2.0 6.0 0.00 0.26 0.00 86 950.4
20260506081813 50 323 3.0 6.0 0.00 0.26 0.00 87 950.4
20260506081345 50 266 0.0 2.0 0.00 0.26 0.00 88 950.3
20260506081313 50 265 1.0 2.0 0.00 0.26 0.00 88 950.3
20260506080845 49 265 0.0 1.0 0.00 0.26 0.00 90 950.3
20260506080813 49 265 0.0 1.0 0.00 0.26 0.00 90 950.3
20260506080342 49 265 0.0 1.0 0.00 0.26 0.00 89 950.3
20260506080313 49 265 0.0 1.0 0.00 0.26 0.00 90 950.3